STARLINK-32347

Last updated on Fri Oct 04 2024 00:02:04 GMT+0000 (Coordinated Universal Time)

1 61010U 24158W 24277.58334491 -.01469415 00000+0 -29622-1 0 9990 2 61010 53.1591 336.7198 0001358 68.1299 127.7584 15.48815067 5636
UTC large
Height (km)
Speed (km/s)
/
Latitude / Longitude
Inclination (degrees)
Orbital Period (minutes)
Azimuth
Elevation
Range (km)
Doppler Factor

Next 0 passes for location: London (51.5072 / 0.1276)

Sorry there are no passes over London.